Location: Newark
(46.1833°N, 6.1333°E)
Time: 00:22:21
(UTC+00:00)

N. Korean satellite - Visible Passes

Search period start: 12 November 2019 00:00
Search period end: 22 November 2019 00:00
Orbit: 456 x 506 km, 97.2° (Epoch: 10 November)

Date Brightness Start Highest point End Pass type
(mag) Time Alt. Az. Time Alt. Az. Time Alt. Az.
12 Nov 10.1 04:27:39 10° ENE 04:29:38 14° E 04:31:37 10° ESE visible
12 Nov 6.6 16:37:09 10° SSE 16:40:44 88° WSW 16:44:24 10° NNW visible
13 Nov 6.7 05:34:14 10° NNE 05:37:58 85° E 05:41:41 10° SSW visible
13 Nov 10.0 17:47:10 10° WSW 17:49:04 14° W 17:50:58 10° WNW visible
14 Nov 8.1 05:09:01 10° NNE 05:12:34 41° E 05:16:04 10° S visible
14 Nov 9.1 17:20:25 10° SSW 17:23:28 26° W 17:26:36 10° NW visible
15 Nov 9.4 04:44:09 10° NE 04:47:03 21° E 04:49:56 10° SE visible
15 Nov 7.6 16:54:28 10° S 16:58:00 52° W 17:01:37 10° NNW visible
16 Nov 10.3 04:20:16 10° ENE 04:21:27 11° E 04:22:37 10° ESE visible
16 Nov 6.7 05:51:32 10° N 05:55:13 58° WNW 05:58:50 10° SSW visible
17 Nov 7.0 05:26:08 10° NNE 05:29:51 68° E 05:33:31 10° S visible
17 Nov 9.8 17:38:25 10° SW 17:40:51 17° W 17:43:19 10° NW visible
18 Nov 8.5 05:01:00 10° NNE 05:04:24 33° E 05:07:45 10° SSE visible
18 Nov 8.6 17:12:00 10° SSW 17:15:17 32° W 17:18:39 10° NNW visible
19 Nov 9.7 04:36:18 10° NE 04:38:51 17° E 04:41:21 10° SE visible
19 Nov 7.1 16:46:12 10° S 16:49:49 67° W 16:53:31 10° NNW visible
20 Nov 6.5 05:43:21 10° N 05:47:04 73° WNW 05:50:43 10° SSW visible
20 Nov 10.3 17:57:15 10° WSW 17:58:14 11° W 17:59:14 10° WNW visible
21 Nov 7.5 05:18:01 10° NNE 05:21:40 53° E 05:25:15 10° S visible
21 Nov 9.5 17:29:47 10° SW 17:32:36 21° W 17:35:27 10° NW visible
